When you browse on this site, cookies collect data to enhance your experience and personalize the content and advertising you see.
Visit our Privacy Policy to learn more. By continuing to use the site, you agree to this use of cookies and data.
  • In Österreich
  • Länderverzeichnis
  • Für 7 Tage
  • Wassertemperatur
  • Wetterkarte
  • News
  • Widgets
  • user-avatar
    Anmelden

    Stündliche Wetter Garoua

    Heute, 8 Dezember, Sonntag

    Zeit Temperatur Niederschläge Wind Luftdruck Luftfeuchtigkeit
    00:00 +23°C° 0 mm 0 m/S 741 mmHg 20%
    01:00 +22°C° 0 mm 0 m/S 742 mmHg 21%
    02:00 +22°C° 0 mm 0 m/S 742 mmHg 22%
    03:00 +21°C° 0 mm 0 m/S 742 mmHg 22%
    04:00 +21°C° 0 mm 0 m/S 742 mmHg 23%
    05:00 +21°C° 0 mm 0 m/S 742 mmHg 24%
    06:00 +21°C° 0 mm 0 m/S 743 mmHg 24%
    07:00 +22°C° 0 mm 0 m/S 743 mmHg 24%
    08:00 +28°C° 0 mm 1 m/S 743 mmHg 20%
    09:00 +31°C° 0 mm 1 m/S 744 mmHg 16%
    10:00 +34°C° 0 mm 1 m/S 744 mmHg 12%
    11:00 +36°C° 0 mm 1 m/S 743 mmHg 11%
    12:00 +38°C° 0 mm 2 m/S 742 mmHg 10%
    13:00 +40°C° 0 mm 2 m/S 741 mmHg 8%
    14:00 +40°C° 0 mm 2 m/S 741 mmHg 9%
    15:00 +40°C° 0 mm 1 m/S 740 mmHg 9%
    16:00 +40°C° 0 mm 1 m/S 740 mmHg 9%
    17:00 +36°C° 0 mm 1 m/S 740 mmHg 11%
    18:00 +33°C° 0 mm 1 m/S 740 mmHg 13%
    19:00 +30°C° 0 mm 1 m/S 740 mmHg 15%
    20:00 +29°C° 0 mm 1 m/S 741 mmHg 16%
    21:00 +28°C° 0 mm 1 m/S 741 mmHg 17%
    22:00 +27°C° 0 mm 1 m/S 742 mmHg 19%
    23:00 +26°C° 0 mm 1 m/S 741 mmHg 19%

    Morgen, 9 Dezember, Montag

    Zeit Temperatur Niederschläge Wind Luftdruck Luftfeuchtigkeit
    00:00 +24°C° 0 mm 0 m/S 741 mmHg 20%
    01:00 +23°C° 0 mm 0 m/S 741 mmHg 20%
    02:00 +22°C° 0 mm 0 m/S 741 mmHg 21%
    03:00 +22°C° 0 mm 0 m/S 741 mmHg 21%
    04:00 +23°C° 0 mm 1 m/S 741 mmHg 22%
    05:00 +21°C° 0 mm 0 m/S 742 mmHg 23%
    06:00 +21°C° 0 mm 0 m/S 742 mmHg 23%
    07:00 +21°C° 0 mm 0 m/S 743 mmHg 24%
    08:00 +26°C° 0 mm 1 m/S 743 mmHg 20%
    09:00 +30°C° 0 mm 1 m/S 743 mmHg 17%
    10:00 +34°C° 0 mm 2 m/S 743 mmHg 13%
    11:00 +36°C° 0 mm 2 m/S 743 mmHg 11%
    12:00 +38°C° 0 mm 2 m/S 742 mmHg 10%
    13:00 +40°C° 0 mm 2 m/S 741 mmHg 9%
    14:00 +40°C° 0 mm 2 m/S 740 mmHg 9%
    15:00 +40°C° 0 mm 2 m/S 740 mmHg 8%
    16:00 +39°C° 0 mm 2 m/S 739 mmHg 8%
    17:00 +36°C° 0 mm 1 m/S 740 mmHg 10%
    18:00 +33°C° 0 mm 1 m/S 740 mmHg 12%
    19:00 +30°C° 0 mm 1 m/S 740 mmHg 15%
    20:00 +29°C° 0 mm 1 m/S 740 mmHg 16%
    21:00 +28°C° 0 mm 1 m/S 741 mmHg 17%
    22:00 +25°C° 0 mm 0 m/S 741 mmHg 18%
    23:00 +24°C° 0 mm 0 m/S 741 mmHg 19%

    übermorgen, 10 Dezember, Dienstag

    Zeit Temperatur Niederschläge Wind Luftdruck Luftfeuchtigkeit
    00:00 +23°C° 0 mm 0 m/S 741 mmHg 20%
    01:00 +22°C° 0 mm 0 m/S 741 mmHg 21%
    02:00 +22°C° 0 mm 0 m/S 741 mmHg 22%
    03:00 +21°C° 0 mm 0 m/S 741 mmHg 22%
    04:00 +21°C° 0 mm 0 m/S 741 mmHg 23%
    05:00 +21°C° 0 mm 0 m/S 741 mmHg 24%
    06:00 +21°C° 0 mm 0 m/S 742 mmHg 24%
    07:00 +21°C° 0 mm 0 m/S 742 mmHg 25%
    08:00 +26°C° 0 mm 1 m/S 742 mmHg 21%
    09:00 +29°C° 0 mm 1 m/S 743 mmHg 17%
    10:00 +34°C° 0 mm 2 m/S 743 mmHg 13%
    11:00 +35°C° 0 mm 1 m/S 742 mmHg 12%
    12:00 +37°C° 0 mm 1 m/S 741 mmHg 10%
    13:00 +40°C° 0 mm 1 m/S 741 mmHg 9%
    14:00 +40°C° 0 mm 1 m/S 740 mmHg 9%
    15:00 +39°C° 0 mm 1 m/S 739 mmHg 8%
    16:00 +36°C° 0 mm 0 m/S 739 mmHg 8%
    17:00 +33°C° 0 mm 0 m/S 739 mmHg 10%
    18:00 +32°C° 0 mm 1 m/S 739 mmHg 13%
    19:00 +29°C° 0 mm 1 m/S 739 mmHg 15%
    20:00 +28°C° 0 mm 1 m/S 740 mmHg 16%
    21:00 +28°C° 0 mm 1 m/S 740 mmHg 16%
    22:00 +27°C° 0 mm 1 m/S 741 mmHg 17%
    23:00 +26°C° 0 mm 1 m/S 741 mmHg 18%

    11 Dezember, Mittwoch

    Zeit Temperatur Niederschläge Wind Luftdruck Luftfeuchtigkeit
    00:00 +25°C° 0 mm 1 m/S 741 mmHg 19%
    01:00 +23°C° 0 mm 0 m/S 741 mmHg 20%
    02:00 +22°C° 0 mm 0 m/S 741 mmHg 21%
    03:00 +21°C° 0 mm 0 m/S 741 mmHg 22%
    04:00 +20°C° 0 mm 0 m/S 741 mmHg 23%
    05:00 +20°C° 0 mm 0 m/S 741 mmHg 24%
    06:00 +21°C° 0 mm 0 m/S 741 mmHg 24%
    07:00 +23°C° 0 mm 1 m/S 742 mmHg 25%
    08:00 +26°C° 0 mm 1 m/S 742 mmHg 21%
    09:00 +30°C° 0 mm 1 m/S 742 mmHg 17%
    10:00 +33°C° 0 mm 1 m/S 743 mmHg 13%
    11:00 +35°C° 0 mm 1 m/S 742 mmHg 11%
    12:00 +37°C° 0 mm 1 m/S 741 mmHg 10%
    13:00 +40°C° 0 mm 1 m/S 741 mmHg 9%
    14:00 +40°C° 0 mm 1 m/S 740 mmHg 9%
    15:00 +39°C° 0 mm 1 m/S 739 mmHg 9%
    16:00 +39°C° 0 mm 1 m/S 739 mmHg 9%
    17:00 +35°C° 0 mm 1 m/S 739 mmHg 11%
    18:00 +32°C° 0 mm 1 m/S 740 mmHg 13%
    19:00 +30°C° 0 mm 1 m/S 740 mmHg 15%
    20:00 +29°C° 0 mm 1 m/S 741 mmHg 16%
    21:00 +28°C° 0 mm 1 m/S 741 mmHg 17%
    22:00 +27°C° 0 mm 1 m/S 742 mmHg 18%
    23:00 +26°C° 0 mm 1 m/S 742 mmHg 18%

    12 Dezember, Donnerstag

    Zeit Temperatur Niederschläge Wind Luftdruck Luftfeuchtigkeit
    00:00 +25°C° 0 mm 1 m/S 742 mmHg 19%
    01:00 +23°C° 0 mm 0 m/S 742 mmHg 20%
    02:00 +22°C° 0 mm 0 m/S 742 mmHg 21%
    03:00 +21°C° 0 mm 0 m/S 741 mmHg 21%
    04:00 +21°C° 0 mm 0 m/S 741 mmHg 22%
    05:00 +21°C° 0 mm 0 m/S 742 mmHg 23%
    06:00 +21°C° 0 mm 0 m/S 742 mmHg 24%
    07:00 +21°C° 0 mm 0 m/S 742 mmHg 24%
    08:00 +25°C° 0 mm 0 m/S 743 mmHg 20%
    09:00 +28°C° 0 mm 0 m/S 743 mmHg 16%
    10:00 +32°C° 0 mm 0 m/S 743 mmHg 12%
    11:00 +34°C° 0 mm 0 m/S 743 mmHg 11%
    12:00 +37°C° 0 mm 1 m/S 742 mmHg 10%
    13:00 +40°C° 0 mm 1 m/S 741 mmHg 8%
    14:00 +40°C° 0 mm 1 m/S 740 mmHg 9%
    15:00 +39°C° 0 mm 1 m/S 740 mmHg 9%
    16:00 +39°C° 0 mm 1 m/S 739 mmHg 9%
    17:00 +35°C° 0 mm 1 m/S 740 mmHg 11%
    18:00 +32°C° 0 mm 1 m/S 740 mmHg 13%
    19:00 +30°C° 0 mm 1 m/S 740 mmHg 15%
    20:00 +29°C° 0 mm 1 m/S 741 mmHg 16%
    21:00 +28°C° 0 mm 1 m/S 741 mmHg 17%
    22:00 +27°C° 0 mm 1 m/S 742 mmHg 18%
    23:00 +26°C° 0 mm 1 m/S 742 mmHg 20%

    13 Dezember, Freitag

    Zeit Temperatur Niederschläge Wind Luftdruck Luftfeuchtigkeit
    00:00 +25°C° 0 mm 1 m/S 742 mmHg 21%
    01:00 +22°C° 0 mm 0 m/S 742 mmHg 23%
    02:00 +21°C° 0 mm 0 m/S 742 mmHg 24%
    03:00 +21°C° 0 mm 0 m/S 742 mmHg 25%
    04:00 +20°C° 0 mm 0 m/S 742 mmHg 27%
    05:00 +20°C° 0 mm 0 m/S 742 mmHg 27%
    06:00 +22°C° 0 mm 1 m/S 743 mmHg 28%
    07:00 +22°C° 0 mm 1 m/S 743 mmHg 29%
    08:00 +25°C° 0 mm 1 m/S 744 mmHg 25%
    09:00 +28°C° 0 mm 1 m/S 744 mmHg 20%
    10:00 +31°C° 0 mm 1 m/S 744 mmHg 16%
    11:00 +33°C° 0 mm 1 m/S 743 mmHg 14%
    12:00 +35°C° 0 mm 1 m/S 743 mmHg 12%
    13:00 +37°C° 0 mm 1 m/S 742 mmHg 10%
    14:00 +37°C° 0 mm 1 m/S 741 mmHg 10%
    15:00 +37°C° 0 mm 1 m/S 741 mmHg 10%
    16:00 +36°C° 0 mm 1 m/S 740 mmHg 10%
    17:00 +34°C° 0 mm 1 m/S 740 mmHg 12%
    18:00 +31°C° 0 mm 1 m/S 740 mmHg 14%
    19:00 +29°C° 0 mm 1 m/S 741 mmHg 16%
    20:00 +28°C° 0 mm 1 m/S 741 mmHg 18%
    21:00 +27°C° 0 mm 1 m/S 742 mmHg 19%
    22:00 +26°C° 0 mm 1 m/S 742 mmHg 21%
    23:00 +23°C° 0 mm 0 m/S 742 mmHg 22%
    Mehr zeigen